Other Surface Observations
Issued by NWS

Home | Current Version | Previous Version | Text Only | Print | Product List | Glossary On
Versions: 1 2 3 4 5 6 7 8 9 10 11 12 13 14 15 16 17 18 19 20 21 22 23 24 25 26 27 28 29 30 31 32 33 34 35 36 37 38 39 40 41 42 43 44 45 46 47 48 49 50
000
SXUS52 KTAE 280618
OSOTAE
OSOTAE
North Florida/South Alabama/Southwest Georgia Weather Roundup
National Weather Service Tallahassee Florida
100 AM EST WED JAN 28 2015

Note: "fair" indicates few or no clouds below 12,000 feet with no
significant weather and/or obstructions to visibility.

!FLZ017-115-028-034-025-280700
...North Florida...

CITY           SKY/WX    TMP DP  RH WIND       PRES   REMARKS
TALLAHASSEE    CLEAR     37  31  78 CALM      30.11R
APALACHICOLA   CLEAR     44  37  76 CALM      30.12R
PERRY          CLEAR     37  36  95 CALM      30.11S
CROSS CITY       N/A     40  36  86 N3        30.10R
JACKSONVILLE   CLEAR     37  36  96 NW5       30.07S WCI  33
$$

!FLZ112-006-005-002-011-280700
...Florida Panhandle...

CITY           SKY/WX    TMP DP  RH WIND       PRES   REMARKS
MARIANNA       CLEAR     40  37  89 CALM      30.12R
BONIFAY        FAIR      40  37  89 CALM      30.14S
PANAMA CITY NW FAIR      39  36  89 CALM      30.12S
TYNDALL AFB    CLEAR     48  38  67 N5        30.13S
TYND DRONE APT FAIR      47  40  78 N2        30.11S
DE FUNIAK SPR  FAIR      44  35  71 N5        30.13S WCI  42
EGLIN AFB      CLEAR     43  35  71 N6        30.13S WCI  40
DESTIN         CLEAR     51  38  60 N7        30.14R
HURLBURT       CLEAR     43  34  70 N6        30.13S WCI  40
CRESTVIEW      CLEAR     45  35  68 NW5       30.16R WCI  43
PENSACOLA      CLEAR     50  35  56 N7        30.15R
$$

!ALZ063-066-280700
...South Alabama...

CITY           SKY/WX    TMP DP  RH WIND       PRES   REMARKS
DOTHAN         CLEAR     40  32  73 CALM      30.15R
OZARK CAIRNS   CLEAR     42  33  71 NW5       30.12S WCI  39
FT RUCKER HELI CLEAR     35  32  88 CALM      30.12S
RUCKER HELI 3  FAIR      38  35  86 NW5       30.15R WCI  35
RUCKER HELI 2  FAIR      39  33  79 NW5       30.12S WCI  36
FLORALA APT    CLEAR     42  34  73 CALM      30.16R
ANDALUSIA      CLEAR     43  34  70 NW3       30.14S
TROY           CLEAR     36  32  85 CALM      30.15R
EUFALA         FAIR      40  30  67 NW3       30.13R
MOBILE         CLEAR     47  34  60 N3        30.17R
$$

!GAZ120>161-280700
...Southwest and South Central Georgia...

CITY           SKY/WX    TMP DP  RH WIND       PRES   REMARKS
THOMASVILLE    FAIR      43  34  70 N6        30.11S WCI  39
BAINBRIDGE     CLEAR     46  34  61 N5        30.12R WCI  44
MOODY AFB      CLEAR     40  32  71 N9        30.09S WCI  34
VALDOSTA       CLEAR     36  33  89 CALM      30.10R
MOULTRIE       CLEAR     43  34  70 CALM      30.11S
BLAKELY        CLEAR     41  36  81 CALM      30.13R
ALBANY         CLEAR     37  31  78 N5        30.13S WCI  33
TIFTON         FAIR      41  32  70 N3        30.10S
FITZGERALD     FAIR      41  30  64 N5        30.12S WCI  38
CORDELE        FAIR      37  33  83 CALM      30.13R
AMERICUS       FAIR      39  32  75 N6        30.13R WCI  35
HOMERVILLE     FAIR      41  37  87 N3        30.10R
$$

!GMZ750-755-770-775-280700
...Coastal and Buoy Obs...

STATION/POSITION TIME  TEMP    WIND        PRES    VSBY  WAVE
                       AIR SEA DIR/SP/G                  HT/PER
                 (UTC) (F)     (DEG/KT/KT) (MB)    (MI)  (FT/S)
KEATON BEACH     0600   48     360/  4/  6 1019.4R
CEDAR KEY        0558   51     360/  5/  8 1019.5R
C TOWER          0600   56      10/ 16/ 18 1019.3R
APALACHICOLA BUO 0600   64 68  360/ 16/ 19 1019.2R         6/ 7
PANAMA CITY BUOY 0539   66 70  340/ 16/ 19 1019.8R         4/ 6
MOBILE BUOY      0538   66 66  340/ 16/ 19 1021.0R         3/ 6
ORANGE BCH AL BU 0600   59 62   20/ 16/ 17 1020.3R         2/ 6
$$



USA.gov is the U.S. government's official web portal to all federal, state and local government web resources and services.